This is the latest recevied weather packets stored in our database for station/object K6CED. If no packets are shown the sender has not sent any weather packets the latest 10 day(s).
| Time | Temp. | Humidity | Pressure | Rain* | Wind** | Luminosity | Snow |
|---|---|---|---|---|---|---|---|
| 1778107363 | 24.44° C | 50% | 1017.2 hPa | 0 mm | - | 612 W/m² | - |
| 1778107059 | 24.44° C | 50% | 1017.3 hPa | 0 mm | - | 628 W/m² | - |
| 1778106754 | 24.44° C | 49% | 1017.4 hPa | 0 mm | - | 637 W/m² | - |
| 1778106452 | 25° C | 48% | 1017.4 hPa | 0 mm | - | 656 W/m² | - |
| 1778106147 | 24.44° C | 49% | 1017.4 hPa | 0 mm | - | 670 W/m² | - |
| 1778105845 | 25° C | 48% | 1017.6 hPa | 0 mm | - | 685 W/m² | - |
| 1778105543 | 25.56° C | 47% | 1017.6 hPa | 0 mm | - | 697 W/m² | - |
| 1778105240 | 25° C | 48% | 1017.6 hPa | 0 mm | - | 713 W/m² | - |
| 1778104934 | 25.56° C | 47% | 1017.7 hPa | 0 mm | - | 725 W/m² | - |
| 1778104632 | 25° C | 47% | 1017.6 hPa | 0 mm | - | 739 W/m² | - |
| 1778104327 | 25° C | 47% | 1017.7 hPa | 0 mm | - | 752 W/m² | - |
| 1778104024 | 25° C | 46% | 1017.7 hPa | 0 mm | - | 764 W/m² | - |
| 1778103721 | 25.56° C | 46% | 1017.8 hPa | 0 mm | - | 774 W/m² | - |
| 1778103420 | 26.11° C | 45% | 1017.8 hPa | 0 mm | - | 782 W/m² | - |
| 1778103117 | 26.11° C | 43% | 1018 hPa | 0 mm | - | 793 W/m² | - |
| 1778102814 | 26.11° C | 37% | 1018.1 hPa | 0 mm | - | 804 W/m² | - |
| 1778102509 | 25.56° C | 37% | 1018.2 hPa | 0 mm | - | 814 W/m² | - |
| 1778102204 | 25.56° C | 38% | 1018 hPa | 0 mm | - | 820 W/m² | - |
| 1778101901 | 25° C | 38% | 1018.1 hPa | 0 mm | - | 831 W/m² | - |
| 1778101598 | 25° C | 39% | 1018.1 hPa | 0 mm | - | 840 W/m² | - |
| 1778101295 | 25° C | 39% | 1018 hPa | 0 mm | - | 848 W/m² | - |
| 1778100992 | 25° C | 39% | 1018.4 hPa | 0 mm | - | 855 W/m² | - |
| 1778100686 | 25° C | 40% | 1018.4 hPa | 0 mm | - | 861 W/m² | - |
| 1778100385 | 24.44° C | 41% | 1018.4 hPa | 0 mm | - | 869 W/m² | - |
| 1778100081 | 24.44° C | 41% | 1018.5 hPa | 0 mm | - | 875 W/m² | - |
* Rain latest hour (hover to see other rain measurements)
** Current wind speed in m/s (hover to see current wind gust speed)